Year,Month,Day,Hour,Minute,Value (Times are PST for temperature in C)
2018,09,19,00,00,10.70
2018,09,19,00,01,10.70
2018,09,19,00,02,10.70
2018,09,19,00,03,10.70
2018,09,19,00,04,10.60
2018,09,19,00,05,10.60
2018,09,19,00,06,10.60
2018,09,19,00,07,10.60
2018,09,19,00,08,10.60
2018,09,19,00,09,10.60
2018,09,19,00,10,10.60
2018,09,19,00,11,10.60
2018,09,19,00,12,10.60
2018,09,19,00,13,10.60
2018,09,19,00,14,10.60
2018,09,19,00,15,10.60
2018,09,19,00,16,10.60
2018,09,19,00,17,10.60
2018,09,19,00,18,10.60
2018,09,19,00,19,10.60
2018,09,19,00,20,10.60
2018,09,19,00,21,10.60
2018,09,19,00,22,10.60
2018,09,19,00,23,10.60
2018,09,19,00,24,10.60
2018,09,19,00,25,10.60
2018,09,19,00,26,10.60
2018,09,19,00,27,10.60
2018,09,19,00,28,10.60
2018,09,19,00,29,10.60
2018,09,19,00,30,10.60
2018,09,19,00,31,10.60
2018,09,19,00,32,10.60
2018,09,19,00,33,10.60
2018,09,19,00,34,10.60
2018,09,19,00,35,10.60
2018,09,19,00,36,10.60
2018,09,19,00,37,10.60
2018,09,19,00,38,10.60
2018,09,19,00,39,10.60
2018,09,19,00,40,10.60
2018,09,19,00,41,10.60
2018,09,19,00,42,10.60
2018,09,19,00,43,10.60
2018,09,19,00,44,10.60
2018,09,19,00,45,10.60
2018,09,19,00,46,10.60
2018,09,19,00,47,10.60
2018,09,19,00,48,10.60
2018,09,19,00,49,10.60
2018,09,19,00,50,10.60
2018,09,19,00,51,10.60
2018,09,19,00,52,10.60
2018,09,19,00,53,10.60
2018,09,19,00,54,10.60
2018,09,19,00,55,10.60
2018,09,19,00,56,10.60
2018,09,19,00,57,10.60
2018,09,19,00,58,10.60
2018,09,19,00,59,10.50
2018,09,19,01,00,10.40
2018,09,19,01,01,10.40
2018,09,19,01,02,10.40
2018,09,19,01,03,10.40
2018,09,19,01,04,10.40
2018,09,19,01,05,10.40
2018,09,19,01,06,10.40
2018,09,19,01,07,10.40
2018,09,19,01,08,10.50
2018,09,19,01,09,10.60
2018,09,19,01,10,10.60
2018,09,19,01,11,10.60
2018,09,19,01,12,10.60
2018,09,19,01,13,10.60
2018,09,19,01,14,10.60
2018,09,19,01,15,10.60
2018,09,19,01,16,10.60
2018,09,19,01,17,10.60
2018,09,19,01,18,10.60
2018,09,19,01,19,10.60
2018,09,19,01,20,10.60
2018,09,19,01,21,10.70
2018,09,19,01,22,10.70
2018,09,19,01,23,10.70
2018,09,19,01,24,10.70
2018,09,19,01,25,10.70
2018,09,19,01,26,10.70
2018,09,19,01,27,10.70
2018,09,19,01,28,10.60
2018,09,19,01,29,10.60
2018,09,19,01,30,10.60
2018,09,19,01,31,10.70
2018,09,19,01,32,10.70
2018,09,19,01,33,10.70
2018,09,19,01,34,10.70
2018,09,19,01,35,10.70
2018,09,19,01,36,10.70
2018,09,19,01,37,10.70
2018,09,19,01,38,10.60
2018,09,19,01,39,10.60
2018,09,19,01,40,10.60
2018,09,19,01,41,10.60
2018,09,19,01,42,10.60
2018,09,19,01,43,10.60
2018,09,19,01,44,10.60
2018,09,19,01,45,10.60
2018,09,19,01,46,10.60
2018,09,19,01,47,10.60
2018,09,19,01,48,10.60
2018,09,19,01,49,10.60
2018,09,19,01,50,10.60
2018,09,19,01,51,10.60
2018,09,19,01,52,10.50
2018,09,19,01,53,10.40
2018,09,19,01,54,10.40
2018,09,19,01,55,10.40
2018,09,19,01,56,10.40
2018,09,19,01,57,10.40
2018,09,19,01,58,10.50
2018,09,19,01,59,10.60
2018,09,19,02,00,10.60
2018,09,19,02,01,10.60
2018,09,19,02,02,10.60
2018,09,19,02,03,10.60
2018,09,19,02,04,10.60
2018,09,19,02,05,10.60
2018,09,19,02,06,10.60
2018,09,19,02,07,10.60
2018,09,19,02,08,10.60
2018,09,19,02,09,10.40
2018,09,19,02,10,10.40
2018,09,19,02,11,10.40
2018,09,19,02,12,10.40
2018,09,19,02,13,10.40
2018,09,19,02,14,10.40
2018,09,19,02,15,10.50
2018,09,19,02,16,10.50
2018,09,19,02,17,10.40
2018,09,19,02,18,10.40
2018,09,19,02,19,10.40
2018,09,19,02,20,10.40
2018,09,19,02,21,10.40
2018,09,19,02,22,10.40
2018,09,19,02,23,10.40
2018,09,19,02,24,10.40
2018,09,19,02,25,10.40
2018,09,19,02,26,10.40
2018,09,19,02,27,10.40
2018,09,19,02,28,10.40
2018,09,19,02,29,10.40
2018,09,19,02,30,10.40
2018,09,19,02,31,10.40
2018,09,19,02,32,10.30
2018,09,19,02,33,10.30
2018,09,19,02,34,10.30
2018,09,19,02,35,10.30
2018,09,19,02,36,10.30
2018,09,19,02,37,10.30
2018,09,19,02,38,10.30
2018,09,19,02,39,10.30
2018,09,19,02,40,10.40
2018,09,19,02,41,10.40
2018,09,19,02,42,10.40
2018,09,19,02,43,10.40
2018,09,19,02,44,10.40
2018,09,19,02,45,10.40
2018,09,19,02,46,10.40
2018,09,19,02,47,10.40
2018,09,19,02,48,10.40
2018,09,19,02,49,10.40
2018,09,19,02,50,10.40
2018,09,19,02,51,10.40
2018,09,19,02,52,10.40
2018,09,19,02,53,10.40
2018,09,19,02,54,10.40
2018,09,19,02,55,10.40
2018,09,19,02,56,10.40
2018,09,19,02,57,10.40
2018,09,19,02,58,10.40
2018,09,19,02,59,10.40
2018,09,19,03,00,10.40
2018,09,19,03,01,10.40
2018,09,19,03,02,10.40
2018,09,19,03,03,10.40
2018,09,19,03,04,10.40
2018,09,19,03,05,10.40
2018,09,19,03,06,10.40
2018,09,19,03,07,10.40
2018,09,19,03,08,10.40
2018,09,19,03,09,10.40
2018,09,19,03,10,10.40
2018,09,19,03,11,10.40
2018,09,19,03,12,10.40
2018,09,19,03,13,10.40
2018,09,19,03,14,10.40
2018,09,19,03,15,10.40
2018,09,19,03,16,10.40
2018,09,19,03,17,10.40
2018,09,19,03,18,10.40
2018,09,19,03,19,10.40
2018,09,19,03,20,10.40
2018,09,19,03,21,10.40
2018,09,19,03,22,10.30
2018,09,19,03,23,10.30
2018,09,19,03,24,10.30
2018,09,19,03,25,10.30
2018,09,19,03,26,10.30
2018,09,19,03,27,10.30
2018,09,19,03,28,10.30
2018,09,19,03,29,10.20
2018,09,19,03,30,10.20
2018,09,19,03,31,10.20
2018,09,19,03,32,10.20
2018,09,19,03,33,10.20
2018,09,19,03,34,10.20
2018,09,19,03,35,10.20
2018,09,19,03,36,10.20
2018,09,19,03,37,10.20
2018,09,19,03,38,10.20
2018,09,19,03,39,10.20
2018,09,19,03,40,10.20
2018,09,19,03,41,10.20
2018,09,19,03,42,10.20
2018,09,19,03,43,10.20
2018,09,19,03,44,10.20
2018,09,19,03,45,10.10
2018,09,19,03,46,10.10
2018,09,19,03,47,10.10
2018,09,19,03,48,10.10
2018,09,19,03,49,10.10
2018,09,19,03,50,10.10
2018,09,19,03,51,10.10
2018,09,19,03,52,10.10
2018,09,19,03,53,10.10
2018,09,19,03,54,10.10
2018,09,19,03,55,10.10
2018,09,19,03,56,10.10
2018,09,19,03,57,10.10
2018,09,19,03,58,10.10
2018,09,19,03,59,10.10
2018,09,19,04,00,9.90
2018,09,19,04,01,9.90
2018,09,19,04,02,9.90
2018,09,19,04,03,9.90
2018,09,19,04,04,9.90
2018,09,19,04,05,9.90
2018,09,19,04,06,9.80
2018,09,19,04,07,9.80
2018,09,19,04,08,9.80
2018,09,19,04,09,9.70
2018,09,19,04,10,9.70
2018,09,19,04,11,9.70
2018,09,19,04,12,9.70
2018,09,19,04,13,9.70
2018,09,19,04,14,9.70
2018,09,19,04,15,9.70
2018,09,19,04,16,9.70
2018,09,19,04,17,9.60
2018,09,19,04,18,9.60
2018,09,19,04,19,9.60
2018,09,19,04,20,9.60
2018,09,19,04,21,9.60
2018,09,19,04,22,9.60
2018,09,19,04,23,9.50
2018,09,19,04,24,9.50
2018,09,19,04,25,9.50
2018,09,19,04,26,9.50
2018,09,19,04,27,9.50
2018,09,19,04,28,9.50
2018,09,19,04,29,9.50
2018,09,19,04,30,9.50
2018,09,19,04,31,9.50
2018,09,19,04,32,9.50
2018,09,19,04,33,9.50
2018,09,19,04,34,9.50
2018,09,19,04,35,9.50
2018,09,19,04,36,9.50
2018,09,19,04,37,9.50
2018,09,19,04,38,9.50
2018,09,19,04,39,9.50
2018,09,19,04,40,9.40
2018,09,19,04,41,9.40
2018,09,19,04,42,9.40
2018,09,19,04,43,9.40
2018,09,19,04,44,9.40
2018,09,19,04,45,9.40
2018,09,19,04,46,9.30
2018,09,19,04,47,9.30
2018,09,19,04,48,9.30
2018,09,19,04,49,9.30
2018,09,19,04,50,9.30
2018,09,19,04,51,9.30
2018,09,19,04,52,9.30
2018,09,19,04,53,9.30
2018,09,19,04,54,9.30
2018,09,19,04,55,9.30
2018,09,19,04,56,9.30
2018,09,19,04,57,9.20
2018,09,19,04,58,9.20
2018,09,19,04,59,9.20
2018,09,19,05,00,9.20
2018,09,19,05,01,9.20
2018,09,19,05,02,9.20
2018,09,19,05,03,9.20
2018,09,19,05,04,9.20
2018,09,19,05,05,9.20
2018,09,19,05,06,9.20
2018,09,19,05,07,9.20
2018,09,19,05,08,9.20
2018,09,19,05,09,9.20
2018,09,19,05,10,9.20
2018,09,19,05,11,9.20
2018,09,19,05,12,9.20
2018,09,19,05,13,9.20
2018,09,19,05,14,9.20
2018,09,19,05,15,9.20
2018,09,19,05,16,9.20
2018,09,19,05,17,9.20
2018,09,19,05,18,9.20
2018,09,19,05,19,9.20
2018,09,19,05,20,9.20
2018,09,19,05,21,9.20
2018,09,19,05,22,9.20
2018,09,19,05,23,9.20
2018,09,19,05,24,9.20
2018,09,19,05,25,9.20
2018,09,19,05,26,9.20
2018,09,19,05,27,9.20
2018,09,19,05,28,9.20
2018,09,19,05,29,9.20
2018,09,19,05,30,9.20
2018,09,19,05,31,9.20
2018,09,19,05,32,9.20
2018,09,19,05,33,9.20
2018,09,19,05,34,9.20
2018,09,19,05,35,9.20
2018,09,19,05,36,9.20
2018,09,19,05,37,9.20
2018,09,19,05,38,9.20
2018,09,19,05,39,9.20
2018,09,19,05,40,9.20
2018,09,19,05,41,9.20
2018,09,19,05,42,9.20
2018,09,19,05,43,9.20
2018,09,19,05,44,9.20
2018,09,19,05,45,9.20
2018,09,19,05,46,9.20
2018,09,19,05,47,9.10
2018,09,19,05,48,9.10
2018,09,19,05,49,9.10
2018,09,19,05,50,9.10
2018,09,19,05,51,9.10
2018,09,19,05,52,9.10
2018,09,19,05,53,9.10
2018,09,19,05,54,9.10
2018,09,19,05,55,9.10
2018,09,19,05,56,9.00
2018,09,19,05,57,9.00
2018,09,19,05,58,9.00
2018,09,19,05,59,9.00
2018,09,19,06,00,9.00
2018,09,19,06,01,8.90
2018,09,19,06,02,8.90
2018,09,19,06,03,8.90
2018,09,19,06,04,8.90
2018,09,19,06,05,8.90
2018,09,19,06,06,8.90
2018,09,19,06,07,8.80
2018,09,19,06,08,8.80
2018,09,19,06,09,8.80
2018,09,19,06,10,8.80
2018,09,19,06,11,8.80
2018,09,19,06,12,8.70
2018,09,19,06,13,8.70
2018,09,19,06,14,8.70
2018,09,19,06,15,8.70
2018,09,19,06,16,8.70
2018,09,19,06,17,8.70
2018,09,19,06,18,8.70
2018,09,19,06,19,8.70
2018,09,19,06,20,8.70
2018,09,19,06,21,8.70
2018,09,19,06,22,8.70
2018,09,19,06,23,8.70
2018,09,19,06,24,8.70
2018,09,19,06,25,8.70
2018,09,19,06,26,8.80
2018,09,19,06,27,8.80
2018,09,19,06,28,8.80
2018,09,19,06,29,8.80
2018,09,19,06,30,8.80
2018,09,19,06,31,8.80
2018,09,19,06,32,8.80
2018,09,19,06,33,8.80
2018,09,19,06,34,8.80
2018,09,19,06,35,8.80
2018,09,19,06,36,8.80
2018,09,19,06,37,8.80
2018,09,19,06,38,8.80
2018,09,19,06,39,8.80
2018,09,19,06,40,8.70
2018,09,19,06,41,8.70
2018,09,19,06,42,8.70
2018,09,19,06,43,8.70
2018,09,19,06,44,8.70
2018,09,19,06,45,8.70
2018,09,19,06,46,8.70
2018,09,19,06,47,8.70
2018,09,19,06,48,8.70
2018,09,19,06,49,8.70
2018,09,19,06,50,8.70
2018,09,19,06,51,8.60
2018,09,19,06,52,8.60
2018,09,19,06,53,8.60
2018,09,19,06,54,8.60
2018,09,19,06,55,8.60
2018,09,19,06,56,8.60
2018,09,19,06,57,8.60
2018,09,19,06,58,8.60
2018,09,19,06,59,8.60
2018,09,19,07,00,8.60
2018,09,19,07,01,8.60
2018,09,19,07,02,8.60
2018,09,19,07,03,8.60
2018,09,19,07,04,8.60
2018,09,19,07,05,8.70
2018,09,19,07,06,8.70
2018,09,19,07,07,8.70
2018,09,19,07,08,8.60
2018,09,19,07,09,8.60
2018,09,19,07,10,8.60
2018,09,19,07,11,8.70
2018,09,19,07,12,8.70
2018,09,19,07,13,8.70
2018,09,19,07,14,8.70
2018,09,19,07,15,8.70
2018,09,19,07,16,8.70
2018,09,19,07,17,8.70
2018,09,19,07,18,8.70
2018,09,19,07,19,8.70
2018,09,19,07,20,8.70
2018,09,19,07,21,8.70
2018,09,19,07,22,8.70
2018,09,19,07,23,8.70
2018,09,19,07,24,8.70
2018,09,19,07,25,8.70
2018,09,19,07,26,8.70
2018,09,19,07,27,8.70
2018,09,19,07,28,8.70
2018,09,19,07,29,8.70
2018,09,19,07,30,8.70
2018,09,19,07,31,8.70
2018,09,19,07,32,8.70
2018,09,19,07,33,8.70
2018,09,19,07,34,8.70
2018,09,19,07,35,8.70
2018,09,19,07,36,8.70
2018,09,19,07,37,8.70
2018,09,19,07,38,8.70
2018,09,19,07,39,8.80
2018,09,19,07,40,8.80
2018,09,19,07,41,8.80
2018,09,19,07,42,8.80
2018,09,19,07,43,8.80
2018,09,19,07,44,8.80
2018,09,19,07,45,8.80
2018,09,19,07,46,8.90
2018,09,19,07,47,8.90
2018,09,19,07,48,8.90
2018,09,19,07,49,9.00
2018,09,19,07,50,9.00
2018,09,19,07,51,9.10
2018,09,19,07,52,9.10
2018,09,19,07,53,9.20
2018,09,19,07,54,9.20
2018,09,19,07,55,9.20
2018,09,19,07,56,9.20
2018,09,19,07,57,9.20
2018,09,19,07,58,9.20
2018,09,19,07,59,9.30
2018,09,19,08,00,9.40
2018,09,19,08,01,9.40
2018,09,19,08,02,9.50
2018,09,19,08,03,9.50
2018,09,19,08,04,9.60
2018,09,19,08,05,9.70
2018,09,19,08,06,9.70
2018,09,19,08,07,9.80
2018,09,19,08,08,9.80
2018,09,19,08,09,9.90
2018,09,19,08,10,10.00
2018,09,19,08,11,10.10
2018,09,19,08,12,10.10
2018,09,19,08,13,10.20
2018,09,19,08,14,10.20
2018,09,19,08,15,10.20
2018,09,19,08,16,10.20
2018,09,19,08,17,10.20
2018,09,19,08,18,10.20
2018,09,19,08,19,10.30
2018,09,19,08,20,10.30
2018,09,19,08,21,10.30
2018,09,19,08,22,10.30
2018,09,19,08,23,10.40
2018,09,19,08,24,10.40
2018,09,19,08,25,10.50
2018,09,19,08,26,10.60
2018,09,19,08,27,10.60
2018,09,19,08,28,10.70
2018,09,19,08,29,10.70
2018,09,19,08,30,10.70
2018,09,19,08,31,10.70
2018,09,19,08,32,10.80
2018,09,19,08,33,10.90
2018,09,19,08,34,10.90
2018,09,19,08,35,11.10
2018,09,19,08,36,11.10
2018,09,19,08,37,11.20
2018,09,19,08,38,11.30
2018,09,19,08,39,11.40
2018,09,19,08,40,11.40
2018,09,19,08,41,11.60
2018,09,19,08,42,11.70
2018,09,19,08,43,11.80
2018,09,19,08,44,11.80
2018,09,19,08,45,11.80
2018,09,19,08,46,11.90
2018,09,19,08,47,12.00
2018,09,19,08,48,12.10
2018,09,19,08,49,12.20
2018,09,19,08,50,12.30
2018,09,19,08,51,12.30
2018,09,19,08,52,12.50
2018,09,19,08,53,12.50
2018,09,19,08,54,12.60
2018,09,19,08,55,12.60
2018,09,19,08,56,12.70
2018,09,19,08,57,12.80
2018,09,19,08,58,12.80
2018,09,19,08,59,12.80
2018,09,19,09,00,12.80
2018,09,19,09,01,12.80
2018,09,19,09,02,12.80
2018,09,19,09,03,12.80
2018,09,19,09,04,12.80
2018,09,19,09,05,12.80
2018,09,19,09,06,12.80
2018,09,19,09,07,12.80
2018,09,19,09,08,12.80
2018,09,19,09,09,12.80
2018,09,19,09,10,12.80
2018,09,19,09,11,12.80
2018,09,19,09,12,12.80
2018,09,19,09,13,12.80
2018,09,19,09,14,12.80
2018,09,19,09,15,12.80
2018,09,19,09,16,12.80
2018,09,19,09,17,12.80
2018,09,19,09,18,12.80
2018,09,19,09,19,12.80
2018,09,19,09,20,12.80
2018,09,19,09,21,12.80
2018,09,19,09,22,12.80
2018,09,19,09,23,12.80
2018,09,19,09,24,12.80
2018,09,19,09,25,12.90
2018,09,19,09,26,12.90
2018,09,19,09,27,12.90
2018,09,19,09,28,12.90
2018,09,19,09,29,13.00
2018,09,19,09,30,13.00
2018,09,19,09,31,13.00
2018,09,19,09,32,13.00
2018,09,19,09,33,13.10
2018,09,19,09,34,13.10
2018,09,19,09,35,13.10
2018,09,19,09,36,13.10
2018,09,19,09,37,13.00
2018,09,19,09,38,13.00
2018,09,19,09,39,12.90
2018,09,19,09,40,12.80
2018,09,19,09,41,12.80
2018,09,19,09,42,12.80
2018,09,19,09,43,12.90
2018,09,19,09,44,12.80
2018,09,19,09,45,12.80
2018,09,19,09,46,12.80
2018,09,19,09,47,12.90
2018,09,19,09,48,12.90
2018,09,19,09,49,12.90
2018,09,19,09,50,12.90
2018,09,19,09,51,13.00
2018,09,19,09,52,13.00
2018,09,19,09,53,13.00
2018,09,19,09,54,12.80
2018,09,19,09,55,12.80
2018,09,19,09,56,12.80
2018,09,19,09,57,12.80
2018,09,19,09,58,12.80
2018,09,19,09,59,12.80
2018,09,19,10,00,12.70
2018,09,19,10,01,12.60
2018,09,19,10,02,12.60
2018,09,19,10,03,12.60
2018,09,19,10,04,12.60
2018,09,19,10,05,12.60
2018,09,19,10,06,12.60
2018,09,19,10,07,12.60
2018,09,19,10,08,12.60
2018,09,19,10,09,12.50
2018,09,19,10,10,12.50
2018,09,19,10,11,12.60
2018,09,19,10,12,12.70
2018,09,19,10,13,12.70
2018,09,19,10,14,12.70
2018,09,19,10,15,12.80
2018,09,19,10,16,12.90
2018,09,19,10,17,12.90
2018,09,19,10,18,13.00
2018,09,19,10,19,13.10
2018,09,19,10,20,13.10
2018,09,19,10,21,13.20
2018,09,19,10,22,13.20
2018,09,19,10,23,13.30
2018,09,19,10,24,13.20
2018,09,19,10,25,13.20
2018,09,19,10,26,13.10
2018,09,19,10,27,13.10
2018,09,19,10,28,13.00
2018,09,19,10,29,13.00
2018,09,19,10,30,13.00
2018,09,19,10,31,13.00
2018,09,19,10,32,12.90
2018,09,19,10,33,12.90
2018,09,19,10,34,12.90
2018,09,19,10,35,12.90
2018,09,19,10,36,12.80
2018,09,19,10,37,12.80
2018,09,19,10,38,12.90
2018,09,19,10,39,12.90
2018,09,19,10,40,13.00
2018,09,19,10,41,13.10
2018,09,19,10,42,13.20
2018,09,19,10,43,13.30
2018,09,19,10,44,13.30
2018,09,19,10,45,13.30
2018,09,19,10,46,13.30
2018,09,19,10,47,13.20
2018,09,19,10,48,13.10
2018,09,19,10,49,13.00
2018,09,19,10,50,13.00
2018,09,19,10,51,13.00
2018,09,19,10,52,13.10
2018,09,19,10,53,13.20
2018,09,19,10,54,13.30
2018,09,19,10,55,13.30
2018,09,19,10,56,13.30
2018,09,19,10,57,13.30
2018,09,19,10,58,13.30
2018,09,19,10,59,13.30
2018,09,19,11,00,13.30
2018,09,19,11,01,13.30
2018,09,19,11,02,13.30
2018,09,19,11,03,13.40
2018,09,19,11,04,13.50
2018,09,19,11,05,13.60
2018,09,19,11,06,13.60
2018,09,19,11,07,13.70
2018,09,19,11,08,13.70
2018,09,19,11,09,13.80
2018,09,19,11,10,13.90
2018,09,19,11,11,14.00
2018,09,19,11,12,14.10
2018,09,19,11,13,14.20
2018,09,19,11,14,14.20
2018,09,19,11,15,14.20
2018,09,19,11,16,14.20
2018,09,19,11,17,14.30
2018,09,19,11,18,14.50
2018,09,19,11,19,14.50
2018,09,19,11,20,14.60
2018,09,19,11,21,14.60
2018,09,19,11,22,14.70
2018,09,19,11,23,14.70
2018,09,19,11,24,14.70
2018,09,19,11,25,14.70
2018,09,19,11,26,14.80
2018,09,19,11,27,14.80
2018,09,19,11,28,14.70
2018,09,19,11,29,14.50
2018,09,19,11,30,14.30
2018,09,19,11,31,14.20
2018,09,19,11,32,14.20
2018,09,19,11,33,14.20
2018,09,19,11,34,14.10
2018,09,19,11,35,14.00
2018,09,19,11,36,13.90
2018,09,19,11,37,13.80
2018,09,19,11,38,13.80
2018,09,19,11,39,13.80
2018,09,19,11,40,13.90
2018,09,19,11,41,14.10
2018,09,19,11,42,14.20
2018,09,19,11,43,14.20
2018,09,19,11,44,14.10
2018,09,19,11,45,13.90
2018,09,19,11,46,13.70
2018,09,19,11,47,13.70
2018,09,19,11,48,13.60
2018,09,19,11,49,13.50
2018,09,19,11,50,13.60
2018,09,19,11,51,13.70
2018,09,19,11,52,13.70
2018,09,19,11,53,13.80
2018,09,19,11,54,13.90
2018,09,19,11,55,14.00
2018,09,19,11,56,14.20
2018,09,19,11,57,14.20
2018,09,19,11,58,14.10
2018,09,19,11,59,14.00
2018,09,19,12,00,13.90
2018,09,19,12,01,13.90
2018,09,19,12,02,14.00
2018,09,19,12,03,13.90
2018,09,19,12,04,13.90
2018,09,19,12,05,13.90
2018,09,19,12,06,14.10
2018,09,19,12,07,14.20
2018,09,19,12,08,14.30
2018,09,19,12,09,14.50
2018,09,19,12,10,14.60
2018,09,19,12,11,14.70
2018,09,19,12,12,14.80
2018,09,19,12,13,14.80
2018,09,19,12,14,14.80
2018,09,19,12,15,14.70
2018,09,19,12,16,14.60
2018,09,19,12,17,14.60
2018,09,19,12,18,14.60
2018,09,19,12,19,14.60
2018,09,19,12,20,14.50
2018,09,19,12,21,14.30
2018,09,19,12,22,14.20
2018,09,19,12,23,14.20
2018,09,19,12,24,14.20
2018,09,19,12,25,14.30
2018,09,19,12,26,14.30
2018,09,19,12,27,14.40
2018,09,19,12,28,14.40
2018,09,19,12,29,14.50
2018,09,19,12,30,14.40
2018,09,19,12,31,14.40
2018,09,19,12,32,14.40
2018,09,19,12,33,14.30
2018,09,19,12,34,14.30
2018,09,19,12,35,14.40
2018,09,19,12,36,14.40
2018,09,19,12,37,14.50
2018,09,19,12,38,14.60
2018,09,19,12,39,14.70
2018,09,19,12,40,14.90
2018,09,19,12,41,15.10
2018,09,19,12,42,15.20
2018,09,19,12,43,15.20
2018,09,19,12,44,15.30
2018,09,19,12,45,15.20
2018,09,19,12,46,15.10
2018,09,19,12,47,15.10
2018,09,19,12,48,15.10
2018,09,19,12,49,15.00
2018,09,19,12,50,15.00
2018,09,19,12,51,15.00
2018,09,19,12,52,15.00
2018,09,19,12,53,15.10
2018,09,19,12,54,15.20
2018,09,19,12,55,15.30
2018,09,19,12,56,15.40
2018,09,19,12,57,15.40
2018,09,19,12,58,15.40
2018,09,19,12,59,15.40
2018,09,19,13,00,15.50
2018,09,19,13,01,15.50
2018,09,19,13,02,15.50
2018,09,19,13,03,15.50
2018,09,19,13,04,15.50
2018,09,19,13,05,15.40
2018,09,19,13,06,15.30
2018,09,19,13,07,15.20
2018,09,19,13,08,15.20
2018,09,19,13,09,15.30
2018,09,19,13,10,15.30
2018,09,19,13,11,15.20
2018,09,19,13,12,15.20
2018,09,19,13,13,15.20
2018,09,19,13,14,15.20
2018,09,19,13,15,15.30
2018,09,19,13,16,15.30
2018,09,19,13,17,15.30
2018,09,19,13,18,15.20
2018,09,19,13,19,15.10
2018,09,19,13,20,15.10
2018,09,19,13,21,15.10
2018,09,19,13,22,15.10
2018,09,19,13,23,15.20
2018,09,19,13,24,15.20
2018,09,19,13,25,15.10
2018,09,19,13,26,15.00
2018,09,19,13,27,15.00
2018,09,19,13,28,15.00
2018,09,19,13,29,15.10
2018,09,19,13,30,15.20
2018,09,19,13,31,15.30
2018,09,19,13,32,15.30
2018,09,19,13,33,15.30
2018,09,19,13,34,15.30
2018,09,19,13,35,15.30
2018,09,19,13,36,15.30
2018,09,19,13,37,15.30
2018,09,19,13,38,15.20
2018,09,19,13,39,15.10
2018,09,19,13,40,15.10
2018,09,19,13,41,15.10
2018,09,19,13,42,15.10
2018,09,19,13,43,15.00
2018,09,19,13,44,15.00
2018,09,19,13,45,14.90
2018,09,19,13,46,15.00
2018,09,19,13,47,14.90
2018,09,19,13,48,14.90
2018,09,19,13,49,14.90
2018,09,19,13,50,14.90
2018,09,19,13,51,14.90
2018,09,19,13,52,14.90
2018,09,19,13,53,14.90
2018,09,19,13,54,15.00
2018,09,19,13,55,14.90
2018,09,19,13,56,14.80
2018,09,19,13,57,14.80
2018,09,19,13,58,14.80
2018,09,19,13,59,14.80
2018,09,19,14,00,14.90
2018,09,19,14,01,14.90
2018,09,19,14,02,15.00
2018,09,19,14,03,15.00
2018,09,19,14,04,14.90
2018,09,19,14,05,14.90
2018,09,19,14,06,14.80
2018,09,19,14,07,14.80
2018,09,19,14,08,14.80
2018,09,19,14,09,14.80
2018,09,19,14,10,14.80
2018,09,19,14,11,14.70
2018,09,19,14,12,14.60
2018,09,19,14,13,14.60
2018,09,19,14,14,14.60
2018,09,19,14,15,14.60
2018,09,19,14,16,14.50
2018,09,19,14,17,14.50
2018,09,19,14,18,14.40
2018,09,19,14,19,14.40
2018,09,19,14,20,14.40
2018,09,19,14,21,14.40
2018,09,19,14,22,14.30
2018,09,19,14,23,14.30
2018,09,19,14,24,14.20
2018,09,19,14,25,14.20
2018,09,19,14,26,14.20
2018,09,19,14,27,14.20
2018,09,19,14,28,14.10
2018,09,19,14,29,14.10
2018,09,19,14,30,14.10
2018,09,19,14,31,14.20
2018,09,19,14,32,14.20
2018,09,19,14,33,14.20
2018,09,19,14,34,14.30
2018,09,19,14,35,14.40
2018,09,19,14,36,14.50
2018,09,19,14,37,14.50
2018,09,19,14,38,14.60
2018,09,19,14,39,14.70
2018,09,19,14,40,14.70
2018,09,19,14,41,14.60
2018,09,19,14,42,14.60
2018,09,19,14,43,14.60
2018,09,19,14,44,14.60
2018,09,19,14,45,14.60
2018,09,19,14,46,14.60
2018,09,19,14,47,14.60
2018,09,19,14,48,14.70
2018,09,19,14,49,14.70
2018,09,19,14,50,14.70
2018,09,19,14,51,14.80
2018,09,19,14,52,14.90
2018,09,19,14,53,15.00
2018,09,19,14,54,15.00
2018,09,19,14,55,15.10
2018,09,19,14,56,15.20
2018,09,19,14,57,15.30
2018,09,19,14,58,15.50
2018,09,19,14,59,15.60
2018,09,19,15,00,15.80
2018,09,19,15,01,15.90
2018,09,19,15,02,16.10
2018,09,19,15,03,16.10
2018,09,19,15,04,16.20
2018,09,19,15,05,16.20
2018,09,19,15,06,16.30
2018,09,19,15,07,16.30
2018,09,19,15,08,16.30
2018,09,19,15,09,16.30
2018,09,19,15,10,16.40
2018,09,19,15,11,16.40
2018,09,19,15,12,16.40
2018,09,19,15,13,16.40
2018,09,19,15,14,16.40
2018,09,19,15,15,16.40
2018,09,19,15,16,16.30
2018,09,19,15,17,16.30
2018,09,19,15,18,16.30
2018,09,19,15,19,16.20
2018,09,19,15,20,16.20
2018,09,19,15,21,16.10
2018,09,19,15,22,16.10
2018,09,19,15,23,16.10
2018,09,19,15,24,16.10
2018,09,19,15,25,16.10
2018,09,19,15,26,16.10
2018,09,19,15,27,16.10
2018,09,19,15,28,16.10
2018,09,19,15,29,16.10
2018,09,19,15,30,16.10
2018,09,19,15,31,16.10
2018,09,19,15,32,16.10
2018,09,19,15,33,16.10
2018,09,19,15,34,16.10
2018,09,19,15,35,16.10
2018,09,19,15,36,16.20
2018,09,19,15,37,16.20
2018,09,19,15,38,16.20
2018,09,19,15,39,16.20
2018,09,19,15,40,16.20
2018,09,19,15,41,16.20
2018,09,19,15,42,16.30
2018,09,19,15,43,16.30
2018,09,19,15,44,16.30
2018,09,19,15,45,16.40
2018,09,19,15,46,16.30
2018,09,19,15,47,16.10
2018,09,19,15,48,15.90
2018,09,19,15,49,15.70
2018,09,19,15,50,15.50
2018,09,19,15,51,15.40
2018,09,19,15,52,15.30
2018,09,19,15,53,15.20
2018,09,19,15,54,15.20
2018,09,19,15,55,15.10
2018,09,19,15,56,15.00
2018,09,19,15,57,15.00
2018,09,19,15,58,14.90
2018,09,19,15,59,14.80
2018,09,19,16,00,14.80
2018,09,19,16,01,14.80
2018,09,19,16,02,14.80
2018,09,19,16,03,14.80
2018,09,19,16,04,14.80
2018,09,19,16,05,14.80
2018,09,19,16,06,14.90
2018,09,19,16,07,14.90
2018,09,19,16,08,15.00
2018,09,19,16,09,15.00
2018,09,19,16,10,15.00
2018,09,19,16,11,15.00
2018,09,19,16,12,15.00
2018,09,19,16,13,15.10
2018,09,19,16,14,15.10
2018,09,19,16,15,15.10
2018,09,19,16,16,15.20
2018,09,19,16,17,15.30
2018,09,19,16,18,15.30
2018,09,19,16,19,15.40
2018,09,19,16,20,15.50
2018,09,19,16,21,15.60
2018,09,19,16,22,15.70
2018,09,19,16,23,15.80
2018,09,19,16,24,15.80
2018,09,19,16,25,15.90
2018,09,19,16,26,15.90
2018,09,19,16,27,16.00
2018,09,19,16,28,16.10
2018,09,19,16,29,16.10
2018,09,19,16,30,16.10
2018,09,19,16,31,16.10
2018,09,19,16,32,16.10
2018,09,19,16,33,16.10
2018,09,19,16,34,16.10
2018,09,19,16,35,16.10
2018,09,19,16,36,16.10
2018,09,19,16,37,16.20
2018,09,19,16,38,16.20
2018,09,19,16,39,16.20
2018,09,19,16,40,16.30
2018,09,19,16,41,16.30
2018,09,19,16,42,16.30
2018,09,19,16,43,16.40
2018,09,19,16,44,16.40
2018,09,19,16,45,16.40
2018,09,19,16,46,16.40
2018,09,19,16,47,16.40
2018,09,19,16,48,16.40
2018,09,19,16,49,16.40
2018,09,19,16,50,16.30
2018,09,19,16,51,16.30
2018,09,19,16,52,16.30
2018,09,19,16,53,16.30
2018,09,19,16,54,16.30
2018,09,19,16,55,16.30
2018,09,19,16,56,16.30
2018,09,19,16,57,16.30
2018,09,19,16,58,16.30
2018,09,19,16,59,16.30
2018,09,19,17,00,16.30
2018,09,19,17,01,16.30
2018,09,19,17,02,16.40
2018,09,19,17,03,16.40
2018,09,19,17,04,16.40
2018,09,19,17,05,16.40
2018,09,19,17,06,16.40
2018,09,19,17,07,16.40
2018,09,19,17,08,16.40
2018,09,19,17,09,16.40
2018,09,19,17,10,16.40
2018,09,19,17,11,16.40
2018,09,19,17,12,16.40
2018,09,19,17,13,16.40
2018,09,19,17,14,16.40
2018,09,19,17,15,16.40
2018,09,19,17,16,16.40
2018,09,19,17,17,16.40
2018,09,19,17,18,16.40
2018,09,19,17,19,16.40
2018,09,19,17,20,16.40
2018,09,19,17,21,16.40
2018,09,19,17,22,16.40
2018,09,19,17,23,16.40
2018,09,19,17,24,16.40
2018,09,19,17,25,16.40
2018,09,19,17,26,16.40
2018,09,19,17,27,16.40
2018,09,19,17,28,16.40
2018,09,19,17,29,16.40
2018,09,19,17,30,16.40